Mount Holly, NJ

1:01 PM EST on December 05, 2019 (GMT -0500)
South Jersey Regional

Weather History for KVAY - September, 2019

Change the Weather History Date:

Sunday, September 1, 2019

  Actual Average (KPNE) Record (KPNE)
Temperature  
Mean Temperature 69 °F -  
Max Temperature 82 °F 79 °F 96 °F (2010)
Min Temperature 57 °F 61 °F 55 °F (2017)
Cooling Degree Days 4    
Growing Degree Days 19 (Base 50)    
Moisture  
Dew Point 59 °F    
Average Humidity 72    
Maximum Humidity 93    
Minimum Humidity 44    
Precipitation  
Precipitation 0.00 in - - ()
Sea Level Pressure  
Sea Level Pressure 30.28 in    
Wind  
Wind Speed 2 mph (East)    
Max Wind Speed 7 mph    
Max Gust Speed -    
Visibility 10 miles    
Events      
Averages and records for this station are not official NWS values.
T = Trace of Precipitation, MM = Missing Value Source: NWS Daily Summary

Daily Weather History Graph

Daily Weather History Graph

Search for Another Location

Airport or City:

Astronomy

Sep. 01, 2019 Rise Set
Actual Time 6:27 AM EDT 7:31 PM EDT
Civil Twilight 5:59 AM EDT 7:58 PM EDT
Nautical Twilight 5:26 AM EDT 8:31 PM EDT
Astronomical Twilight 4:51 AM EDT 9:06 PM EDT
Moon 8:54 AM EDT (9/1) 9:17 PM EDT (9/1)
Length of Visible Light 13h 59m
Length of Day
13h 04m
Waxing Crescent, 8% of the Moon is Illuminated
Sep 1
Waxing Crescent
Sep 5
First Quarter
Sep 14
Full
Sep 21
Last Quarter
Sep 28
New

Hourly Weather History & Observations

Time (EDT) Temp. Heat Index Dew Point Humidity Pressure Visibility Wind Dir Wind Speed Gust Speed Precip Events Conditions
12:54 AM 62.1 °F - 57.0 °F 84% 30.28 in 10.0 mi Calm Calm - N/A   Mostly Cloudy
1:54 AM 60.1 °F - 55.9 °F 86% 30.29 in 10.0 mi Calm Calm - N/A   Partly Cloudy
2:54 AM 60.1 °F - 57.0 °F 90% 30.29 in 10.0 mi Calm Calm - N/A   Partly Cloudy
3:54 AM 59.0 °F - 55.0 °F 87% 30.29 in 10.0 mi Calm Calm - N/A   Clear
4:54 AM 57.9 °F - 55.0 °F 90% 30.29 in 10.0 mi Calm Calm - N/A   Clear
5:54 AM 59.0 °F - 55.9 °F 90% 30.30 in 10.0 mi Calm Calm - N/A   Clear
6:54 AM 60.1 °F - 55.9 °F 86% 30.31 in 10.0 mi NE 3.5 mph - N/A   Clear
7:54 AM 64.9 °F - 57.9 °F 78% 30.31 in 10.0 mi Calm Calm - N/A   Clear
8:54 AM 68.0 °F - 59.0 °F 73% 30.31 in 10.0 mi NE 3.5 mph - N/A   Clear
9:54 AM 72.0 °F - 61.0 °F 68% 30.33 in 10.0 mi Variable 4.6 mph - N/A   Clear
10:54 AM 73.9 °F - 59.0 °F 59% 30.32 in 10.0 mi East 6.9 mph - N/A   Clear
11:54 AM 78.1 °F - 62.1 °F 58% 30.32 in 10.0 mi SE 6.9 mph - N/A   Clear
12:54 PM 80.1 °F 80.6 °F 57.9 °F 47% 30.30 in 10.0 mi Variable 6.9 mph - N/A   Clear
1:54 PM 81.0 °F 81.0 °F 57.0 °F 44% 30.28 in 10.0 mi ENE 3.5 mph - N/A   Clear
2:54 PM 80.1 °F 80.7 °F 59.0 °F 48% 30.26 in 10.0 mi Variable 5.8 mph - N/A   Scattered Clouds
3:54 PM 81.0 °F 81.3 °F 59.0 °F 47% 30.25 in 10.0 mi East 5.8 mph - N/A   Scattered Clouds
4:54 PM 80.1 °F 80.6 °F 57.9 °F 47% 30.24 in 10.0 mi East 5.8 mph - N/A   Clear
5:54 PM 77.0 °F - 60.1 °F 56% 30.24 in 10.0 mi ESE 5.8 mph - N/A   Partly Cloudy
6:54 PM 73.9 °F - 61.0 °F 64% 30.25 in 10.0 mi ESE 5.8 mph - N/A   Clear
7:54 PM 71.1 °F - 62.1 °F 73% 30.25 in 10.0 mi ESE 3.5 mph - N/A   Clear
8:54 PM 69.1 °F - 63.0 °F 81% 30.24 in 10.0 mi ESE 3.5 mph - N/A   Clear
9:54 PM 68.0 °F - 64.0 °F 87% 30.23 in 10.0 mi Calm Calm - N/A   Clear
10:54 PM 66.9 °F - 63.0 °F 87% 30.22 in 10.0 mi Calm Calm - N/A   Clear
11:54 PM 64.9 °F - 63.0 °F 93% 30.21 in 10.0 mi Calm Calm - N/A   Clear